Lexington Weather

Lexington, Massachusetts, USA

27°F
2/29/2020 1:09am 
  • Lexington Conditions: Clear
  • Temperature: 26.6°F / -3.0°CColder 1.3°F than last hour.
  • Dew Point: 13.8°FIncreased 0.3°Fsince last hour.
  • Relative Humidity: 58%Increased 4.0% since last hour.
  • Wind: Calm, 10-min avg: Calm, gust: 2 mph
  • Barometer: 29.75 in Steady
  • Visibility: 10 miles
  • Snow Today: 0.0 in
  •   

Regional Weather Roundup
for Boston / Norton, MA

        
000
ASUS41 KBOX 280900
RWRBOX

REGIONAL WEATHER ROUNDUP
NATIONAL WEATHER SERVICE BOSTON/NORTON MA
400 AM EST FRI FEB 28 2020

NOTE:  "FAIR" INDICATES FEW OR NO CLOUDS BELOW 12,000 FEET WITH NO 
SIGNIFICANT WEATHER AND/OR OBSTRUCTIONS TO VISIBILITY.

MAZALL-281000-
EASTERN MASSACHUSETTS
  
CITY           SKY/WX    TMP DP  RH WIND       PRES   REMARKS
BOSTON         MOCLDY    32  11  41 SW20G25   29.68S WCI  20          
BEVERLY        FAIR      29   6  38 W15G22    29.66R WCI  18          
LAWRENCE       FAIR      28   8  43 SW18G29   29.67R WCI  15          
BEDFORD        FAIR      29   4  34 SW12      29.67R WCI  19          
BLUE HILL        N/A     26   9  48 W17G25    29.65R WCI  13          
NORWOOD        MOCLDY    32   9  38 W12       29.70R WCI  23          
MARSHFIELD     NOT AVBL                                               
PLYMOUTH       FAIR      28   9  44 W15       29.71R WCI  16          
TAUNTON        FAIR      29   7  39 SW13G22   29.72R WCI  19          
NEW BEDFORD    FAIR      29   7  39 W20G30    29.73R WCI  16          
$$

MAZALL-281000-
CAPE COD AND THE ISLANDS
  
CITY           SKY/WX    TMP DP  RH WIND       PRES   REMARKS
FALMOUTH       CLEAR     28   7  40 W25       29.71S WCI  14          
HYANNIS        FAIR      31   8  38 W15       29.72R WCI  20          
CHATHAM        FAIR      30   5  34 W9G28     29.74R WCI  22          
PROVINCETOWN   MOCLDY    30  14  51 W26G35    29.71R WCI  16          
NANTUCKET      CLOUDY    33  14  45 W26G38    29.75R WCI  20          
MARTHAS VNYRD  FAIR      31   9  39 W20G33    29.75R WCI  19          
$$
 
MAZALL-281000-
CENTRAL AND WESTERN MASSACHUSETTS
  
CITY           SKY/WX    TMP DP  RH WIND       PRES   REMARKS
WORCESTER      MOCLDY    25   7  46 W17G35    29.63R WCI  12          
FITCHBURG      MOCLDY    27   5  39 W9G21     29.66R WCI  18          
ORANGE         CLOUDY    27   6  41 W16G25    29.66S WCI  15          
SPRINGFIELD    FAIR      27   9  46 SW12      29.69S WCI  17          
WESTFIELD      FAIR      27   9  46 W10       29.70S WCI  17          
NORTH ADAMS    CLOUDY    24  10  55 W17G25    29.65R WCI  11          
PITTSFIELD     MOCLDY    23   7  50 W16G35    29.62R WCI  10          
$$
 
RIZALL-281000-
RHODE ISLAND
  
CITY           SKY/WX    TMP DP  RH WIND       PRES   REMARKS
PROVIDENCE     FAIR      30   7  37 W20G28    29.75R WCI  17          
NEWPORT        FAIR      30   8  39 W9G25     29.74R WCI  22          
BLOCK ISLAND   CLOUDY    31  14  49 W22G35    29.78R WCI  18          
SMITHFIELD     MOCLDY    27  10  49 W14G20    29.70R WCI  16          
WESTERLY       FAIR      32   7  35 W15G31    29.78R WCI  22          
$$
 
CTZALL-281000-
CONNECTICUT
  
CITY           SKY/WX    TMP DP  RH WIND       PRES   REMARKS
BRADLEY INTL   FAIR      29   9  43 SW13      29.72S WCI  19          
HARTFORD       FAIR      30   8  39 W10G22    29.75S WCI  21          
BRIDGEPORT     MOCLDY    31  10  41 W22G32    29.79S WCI  18          
DANBURY        FAIR      27   7  42 W13G25    29.77R WCI  16          
GROTON         FAIR      30   9  41 W24G35    29.77R WCI  16          
NEW HAVEN      MOCLDY    32  14  47 W14G22    29.78S WCI  22          
CHESTER        NOT AVBL                                               
MERIDEN        CLOUDY    30  10  43 W10G21    29.76S WCI  21          
WILLIMANTIC    MOCLDY    28   8  43 W13G24    29.75R WCI  17          
OXFORD         FLURRIES  26  14  60 W13G22    29.74R WCI  15          
$$

MEZ002-015-021-024-NHZ003-005-008-011-012-014-VTZ005-008-281000-
NORTHERN NEW ENGLAND
  
CITY           SKY/WX    TMP DP  RH WIND       PRES   REMARKS
PORTLAND ME    FAIR      28   8  43 SW15G25   29.58R WCI  16          
BANGOR ME      FLURRIES  29  19  66 SW8       29.48R WCI  21          
CONCORD NH     FAIR      25   7  46 W15G23    29.61R WCI  13          
MANCHESTER NH  MOCLDY    28   6  39 W15G23    29.63R WCI  16          
NASHUA NH      CLOUDY    27  10  49 W12G20    29.66R WCI  17          
PORTSMOUTH NH  NOT AVBL                                               
JAFFREY NH     CLOUDY    24   6  46 W13G31    29.60R WCI  12          
KEENE NH       CLOUDY    25   9  50 SW10      29.64S WCI  15          
BURLINGTON VT  CLOUDY    24  12  60 S17G24    29.48F WCI  11          
MT. WASHINGTON SNOWSHWR  -2  -2 100 W70G86      N/A  VSB 1/16WCI -38  
$$

NYZ052-076-281000-
EASTERN NEW YORK
  
CITY           SKY/WX    TMP DP  RH WIND       PRES   REMARKS
ALBANY         MOCLDY    27   7  42 W16G31    29.68S WCI  15          
NEW YORK CITY  FAIR      31  13  47 W14G30    29.83R WCI  21          
$$
 
ANZALL-281000-
MARINE OBSERVATIONS
  
STATION/POSITION TIME  TEMP    WIND        PRES    VSBY  WAVE
                       AIR SEA DIR/SP/G                  HT/PER
                 (UTC) (F)     (DEG/KT/KT) (MB)    (MI)  (FT/S)
BOSTON BUOY      0750   33 41  250/ 23/ 35 1003.8          4/ 4
BUZZARDS BAY     0800          270/ 35/ 40 1007.7R
NANTUCKET SOUND  0820                      1006.7R
MASS BAY-STELLWA 0804   32 41  290/ 29/ 35 1002.3F  1 7/8  5/ 5
ISLE OF SHOALS   0800   29     260/ 29/ 34 1002.4R
S OF BLOCK IS    0830      44                N/A          11/ 9
$$

......................KEY.........................
  SKY/WX - SKY CONDITION/PRESENT WEATHER
  TMP    - TEMPERATURE IN FAHRENHEIT
  DWPT   - DEWPOINT IN FAHRENHEIT
  RH     - RELATIVE HUMIDITY IN PERCENT
  WIND   - DIRECTION AND SPEED IN MPH
  PRES   - MEAN SEA LEVEL PRESSURE IN INCHES OF HG
  WCI    - WIND CHILL INDEX
  VSB    - VISIBILITY IN MILES
  HX     - HEAT INDEX
  TC     - TEMPERATURE IN CELSIUS
  VRB    - VARIABLE WIND DIRECTION
  N/A    - NOT AVAILABLE
  
      

Other recent Regional Weather Roundups

Sat Feb 29, 1:10am

Sat Feb 29, 1:00am

Sat Feb 29, 12:10am

Sat Feb 29, 12:00am

Fri Feb 28, 11:10pm

Fri Feb 28, 11:00pm

Fri Feb 28, 10:10pm

Fri Feb 28, 10:00pm

Fri Feb 28, 9:10pm

Fri Feb 28, 9:00pm

Fri Feb 28, 8:10pm

Fri Feb 28, 8:01pm

Fri Feb 28, 7:10pm

Fri Feb 28, 7:00pm

Fri Feb 28, 6:10pm

Fri Feb 28, 6:01pm

Fri Feb 28, 5:10pm

Fri Feb 28, 5:00pm

Fri Feb 28, 4:10pm

Fri Feb 28, 4:01pm

Fri Feb 28, 3:10pm

Fri Feb 28, 3:00pm

Fri Feb 28, 2:10pm

Fri Feb 28, 2:00pm

Fri Feb 28, 1:10pm

Fri Feb 28, 1:01pm

Fri Feb 28, 12:10pm

Fri Feb 28, 12:01pm

Fri Feb 28, 11:10am

Fri Feb 28, 11:00am

Fri Feb 28, 10:10am

Fri Feb 28, 10:00am

Fri Feb 28, 9:10am

Fri Feb 28, 9:01am

Fri Feb 28, 8:10am

Fri Feb 28, 8:00am

Fri Feb 28, 7:10am

Fri Feb 28, 7:00am

Fri Feb 28, 6:10am

Fri Feb 28, 6:00am

Fri Feb 28, 5:10am

Fri Feb 28, 5:00am

Fri Feb 28, 4:10am

Fri Feb 28, 3:10am

Fri Feb 28, 3:00am

Fri Feb 28, 2:10am

Fri Feb 28, 2:00am

Fri Feb 28, 1:10am

Fri Feb 28, 1:00am

Fri Feb 28, 12:10am

Fri Feb 28, 12:00am

Thu Feb 27, 11:10pm

Thu Feb 27, 11:01pm

Thu Feb 27, 10:10pm

Thu Feb 27, 10:00pm

Thu Feb 27, 9:10pm

Thu Feb 27, 9:00pm

Thu Feb 27, 8:10pm

Thu Feb 27, 8:01pm

Thu Feb 27, 7:10pm

Thu Feb 27, 7:00pm

Wed Feb 26, 11:10am

Wed Feb 26, 11:00am

Wed Feb 26, 10:10am

Wed Feb 26, 10:01am

Wed Feb 26, 9:10am

Wed Feb 26, 9:00am

Wed Feb 26, 8:10am

Wed Feb 26, 8:00am

Wed Feb 26, 7:10am

Wed Feb 26, 7:00am

Wed Feb 26, 6:10am

Wed Feb 26, 6:00am

Wed Feb 26, 5:10am

Wed Feb 26, 5:00am

Wed Feb 26, 4:10am

Wed Feb 26, 4:00am

Wed Feb 26, 3:10am

Wed Feb 26, 3:00am

Wed Feb 26, 2:10am

Wed Feb 26, 2:00am

Wed Feb 26, 1:10am

Meta data:

ID: 430abb77-6d2b-4a7c-934b-33961afc7902
Link: https://api.weather.gov/products/430abb77-6d2b-4a7c-934b-33961afc7902